| time (UTC) | temp F | wind direction | speed knots | gust knots | rain 1hr in | rain 24hr in | rain mn in | humidity % | barometer mb |
| 20260906184239 | 57 | 238 | 5.2 | 11.3 | 0.00 | 0.00 | 0.00 | 8 | 1022.0 |
| 20260906183239 | 57 | 256 | 4.3 | 4.3 | 0.00 | 0.00 | 0.00 | 8 | 1022.2 |
| 20260906182239 | 57 | 258 | 2.6 | 6.1 | 0.00 | 0.00 | 0.00 | 8 | 1022.2 |
| 20260906181239 | 57 | 256 | 4.3 | 7.8 | 0.00 | 0.00 | 0.00 | 8 | 1022.2 |
| 20260906180239 | 57 | 251 | 1.7 | 3.5 | 0.00 | 0.00 | 0.00 | 8 | 1022.2 |
| 20260906175239 | 57 | 250 | 0.9 | 4.3 | 0.00 | 0.00 | 0.00 | 8 | 1022.3 |
| 20260906174239 | 57 | 239 | 3.5 | 5.2 | 0.00 | 0.00 | 0.00 | 8 | 1022.2 |
| 20260906173239 | 57 | 262 | 6.1 | 8.7 | 0.00 | 0.00 | 0.00 | 8 | 1022.1 |
| 20260906172749 | 57 | 248 | 2.6 | 7.0 | 0.00 | 0.00 | 0.00 | 8 | 1022.1 |
| 20260906171749 | 57 | 245 | 0.9 | 5.2 | 0.00 | 0.00 | 0.00 | 8 | 1022.1 |
| 20260906170749 | 57 | 252 | 1.7 | 3.5 | 0.00 | 0.00 | 0.00 | 8 | 1022.1 |
| 20260906165749 | 57 | 249 | 3.5 | 4.3 | 0.00 | 0.00 | 0.00 | 8 | 1022.1 |
| 20260906164749 | 57 | 266 | 3.5 | 4.3 | 0.00 | 0.00 | 0.00 | 8 | 1022.1 |
| 20260906163749 | 57 | 243 | 3.5 | 5.2 | 0.00 | 0.00 | 0.00 | 8 | 1022.1 |
| 20260906162749 | 58 | 260 | 3.5 | 4.3 | 0.00 | 0.00 | 0.00 | 8 | 1022.2 |
| 20260906161749 | 58 | 264 | 0.9 | 6.1 | 0.00 | 0.00 | 0.00 | 8 | 1022.3 |
| 20260906160749 | 58 | 252 | 1.7 | 4.3 | 0.00 | 0.00 | 0.00 | 8 | 1022.4 |
| 20260906155748 | 58 | 247 | 1.7 | 3.5 | 0.00 | 0.00 | 0.00 | 8 | 1022.4 |
| 20260906154748 | 58 | 260 | 2.6 | 4.3 | 0.00 | 0.00 | 0.00 | 8 | 1022.4 |
| 20260906153748 | 58 | 239 | 5.2 | 7.8 | 0.00 | 0.00 | 0.00 | 8 | 1022.5 |
| 20260906152748 | 58 | 251 | 1.7 | 5.2 | 0.00 | 0.00 | 0.00 | 8 | 1022.6 |
| 20260906151747 | 58 | 249 | 3.5 | 7.0 | 0.00 | 0.00 | 0.00 | 8 | 1022.7 |
| 20260906150747 | 58 | 251 | 2.6 | 8.7 | 0.00 | 0.00 | 0.00 | 8 | 1022.8 |
| 20260906145747 | 58 | 249 | 3.5 | 7.8 | 0.00 | 0.00 | 0.00 | 8 | 1022.9 |
| 20260906144747 | 58 | 250 | 1.7 | 4.3 | 0.00 | 0.00 | 0.00 | 8 | 1022.9 |
| 20260906143747 | 59 | 249 | 0.9 | 4.3 | 0.00 | 0.00 | 0.00 | 8 | 1022.7 |
| 20260906142747 | 59 | 248 | 3.5 | 4.3 | 0.00 | 0.00 | 0.00 | 8 | 1022.7 |
| 20260906141747 | 59 | 239 | 2.6 | 4.3 | 0.00 | 0.00 | 0.00 | 8 | 1022.6 |
| 20260906140747 | 59 | 258 | 4.3 | 6.1 | 0.00 | 0.00 | 0.00 | 8 | 1022.7 |
| 20260906135747 | 59 | 246 | 2.6 | 4.3 | 0.00 | 0.00 | 0.00 | 8 | 1022.6 |
| 20260906134747 | 59 | 239 | 1.7 | 3.5 | 0.00 | 0.00 | 0.00 | 8 | 1022.5 |
| 20260906133747 | 60 | 233 | 1.7 | 5.2 | 0.00 | 0.00 | 0.00 | 8 | 1022.5 |
| 20260906132747 | 60 | 252 | 3.5 | 6.1 | 0.00 | 0.00 | 0.00 | 8 | 1022.5 |
| 20260906131747 | 60 | 255 | 2.6 | 4.3 | 0.00 | 0.00 | 0.00 | 8 | 1022.5 |
| 20260906130747 | 60 | 249 | 1.7 | 4.3 | 0.00 | 0.00 | 0.00 | 8 | 1022.6 |
| 20260906125747 | 59 | 237 | 3.5 | 4.3 | 0.00 | 0.00 | 0.00 | 8 | 1022.5 |
| 20260906124747 | 59 | 235 | 1.7 | 3.5 | 0.00 | 0.00 | 0.00 | 8 | 1022.6 |
| 20260906123747 | 59 | 229 | 1.7 | 3.5 | 0.00 | 0.00 | 0.00 | 8 | 1022.6 |
| 20260906122747 | 59 | 228 | 2.6 | 3.5 | 0.00 | 0.00 | 0.00 | 8 | 1022.6 |
| 20260906121747 | 59 | 227 | 1.7 | 1.7 | 0.00 | 0.00 | 0.00 | 8 | 1022.6 |
| 20260906120747 | 60 | 0 | 0.0 | 2.6 | 0.00 | 0.00 | 0.00 | 8 | 1022.7 |
| 20260906115747 | 60 | 0 | 0.0 | 5.2 | 0.00 | 0.00 | 0.00 | 7 | 1022.6 |
| 20260906114747 | 60 | 185 | 0.9 | 7.0 | 0.00 | 0.00 | 0.00 | 7 | 1022.5 |
| 20260906113747 | 60 | 163 | 2.6 | 7.8 | 0.00 | 0.00 | 0.00 | 7 | 1022.5 |
| 20260906112747 | 60 | 180 | 2.6 | 7.0 | 0.00 | 0.00 | 0.00 | 7 | 1022.5 |
| 20260906111747 | 60 | 231 | 0.9 | 5.2 | 0.00 | 0.00 | 0.00 | 7 | 1022.4 |
| 20260906110747 | 60 | 211 | 4.3 | 5.2 | 0.00 | 0.00 | 0.00 | 7 | 1022.2 |
| 20260906105747 | 60 | 189 | 2.6 | 7.8 | 0.00 | 0.00 | 0.00 | 7 | 1022.1 |
| 20260906104746 | 60 | 166 | 4.3 | 4.3 | 0.00 | 0.00 | 0.00 | 7 | 1022.1 |
| 20260906103746 | 60 | 156 | 1.7 | 4.3 | 0.00 | 0.00 | 0.00 | 7 | 1022.0 |
| 20260906102746 | 60 | 156 | 1.7 | 3.5 | 0.00 | 0.00 | 0.00 | 7 | 1021.9 |
| 20260906101746 | 61 | 192 | 2.6 | 3.5 | 0.00 | 0.00 | 0.00 | 7 | 1021.6 |
| 20260906100746 | 61 | 185 | 1.7 | 5.2 | 0.00 | 0.00 | 0.00 | 7 | 1021.6 |
| 20260906095745 | 61 | 160 | 2.6 | 5.2 | 0.00 | 0.00 | 0.00 | 7 | 1021.4 |
| 20260906094745 | 61 | 162 | 2.6 | 9.6 | 0.00 | 0.00 | 0.00 | 7 | 1021.4 |
| 20260906093745 | 61 | 153 | 4.3 | 7.8 | 0.00 | 0.00 | 0.00 | 7 | 1021.3 |
| 20260906092745 | 61 | 147 | 1.7 | 7.0 | 0.00 | 0.00 | 0.00 | 7 | 1021.2 |
| 20260906091745 | 61 | 205 | 2.6 | 5.2 | 0.00 | 0.00 | 0.00 | 7 | 1021.3 |
| 20260906090745 | 61 | 205 | 0.9 | 7.0 | 0.00 | 0.00 | 0.00 | 7 | 1021.0 |
| 20260906085745 | 61 | 197 | 4.3 | 6.1 | 0.00 | 0.00 | 0.00 | 7 | 1021.0 |
| 20260906084745 | 61 | 206 | 1.7 | 5.2 | 0.00 | 0.00 | 0.00 | 7 | 1020.9 |
| 20260906083745 | 61 | 162 | 1.7 | 7.0 | 0.00 | 0.00 | 0.00 | 7 | 1020.7 |
| 20260906082745 | 61 | 175 | 7.0 | 8.7 | 0.00 | 0.00 | 0.00 | 7 | 1020.8 |
| 20260906081744 | 62 | 122 | 2.6 | 3.5 | 0.00 | 0.00 | 0.00 | 7 | 1020.6 |
| 20260906080744 | 62 | 175 | 1.7 | 7.8 | 0.00 | 0.00 | 0.00 | 7 | 1020.4 |
| 20260906075743 | 62 | 143 | 8.7 | 12.2 | 0.00 | 0.00 | 0.00 | 7 | 1020.2 |
| 20260906074743 | 62 | 113 | 1.7 | 11.3 | 0.00 | 0.00 | 0.00 | 7 | 1020.0 |
| 20260906073743 | 63 | 130 | 1.7 | 5.2 | 0.00 | 0.00 | 0.00 | 7 | 1019.8 |
| 20260906072743 | 63 | 122 | 8.7 | 13.0 | 0.00 | 0.00 | 0.00 | 7 | 1019.6 |
| 20260906071743 | 63 | 168 | 5.2 | 9.6 | 0.00 | 0.00 | 0.00 | 6 | 1019.5 |
| 20260906070743 | 63 | 131 | 2.6 | 7.0 | 0.00 | 0.00 | 0.00 | 6 | 1019.2 |
| 20260906065743 | 63 | 151 | 0.9 | 4.3 | 0.00 | 0.00 | 0.00 | 6 | 1019.1 |
| 20260906064743 | 64 | 115 | 1.7 | 7.8 | 0.00 | 0.00 | 0.00 | 6 | 1019.0 |
| 20260906063743 | 64 | 143 | 5.2 | 9.6 | 0.00 | 0.00 | 0.00 | 6 | 1018.9 |
| 20260906062743 | 64 | 133 | 3.5 | 7.8 | 0.00 | 0.00 | 0.00 | 6 | 1018.7 |
| 20260906061743 | 64 | 168 | 7.0 | 11.3 | 0.00 | 0.00 | 0.00 | 6 | 1018.6 |
| 20260906060743 | 65 | 162 | 2.6 | 9.6 | 0.00 | 0.00 | 0.00 | 6 | 1018.6 |
| 20260906055743 | 65 | 141 | 2.6 | 9.6 | 0.00 | 0.00 | 0.00 | 6 | 1018.5 |
| 20260906054743 | 65 | 160 | 1.7 | 13.9 | 0.00 | 0.00 | 0.00 | 5 | 1018.3 |
| 20260906053743 | 66 | 175 | 2.6 | 8.7 | 0.00 | 0.00 | 0.00 | 5 | 1017.9 |
| 20260906052743 | 67 | 139 | 2.6 | 8.7 | 0.00 | 0.00 | 0.00 | 5 | 1018.0 |
| 20260906051743 | 67 | 116 | 4.3 | 7.8 | 0.00 | 0.00 | 0.00 | 5 | 1017.9 |
| 20260906050743 | 69 | 137 | 5.2 | 7.0 | 0.00 | 0.00 | 0.00 | 5 | 1017.6 |
| 20260906045743 | 68 | 131 | 7.0 | 7.8 | 0.00 | 0.00 | 0.00 | 5 | 1017.5 |
| 20260906044743 | 69 | 108 | 6.1 | 7.8 | 0.00 | 0.00 | 0.00 | 5 | 1017.4 |
| 20260906043743 | 68 | 202 | 1.7 | 7.0 | 0.00 | 0.00 | 0.00 | 5 | 1017.3 |
| 20260906042743 | 68 | 102 | 5.2 | 9.6 | 0.00 | 0.00 | 0.00 | 5 | 1017.3 |
| 20260906041743 | 69 | 101 | 3.5 | 10.4 | 0.00 | 0.00 | 0.00 | 4 | 1017.2 |
| 20260906040742 | 68 | 89 | 6.1 | 7.8 | 0.00 | 0.00 | 0.00 | 5 | 1017.2 |
| 20260906035742 | 69 | 185 | 2.6 | 8.7 | 0.00 | 0.00 | 0.00 | 4 | 1017.1 |
| 20260906034742 | 68 | 86 | 3.5 | 11.3 | 0.00 | 0.00 | 0.00 | 4 | 1017.2 |
| 20260906033742 | 70 | 175 | 5.2 | 5.2 | 0.00 | 0.00 | 0.00 | 4 | 1017.0 |
| 20260906032742 | 70 | 175 | 2.6 | 7.0 | 0.00 | 0.00 | 0.00 | 4 | 1017.0 |
| 20260906031742 | 69 | 108 | 2.6 | 7.0 | 0.00 | 0.00 | 0.00 | 4 | 1016.9 |
| 20260906030742 | 68 | 193 | 3.5 | 9.6 | 0.00 | 0.00 | 0.00 | 4 | 1016.9 |
| 20260906025742 | 70 | 197 | 7.0 | 10.4 | 0.00 | 0.00 | 0.00 | 4 | 1016.6 |
| 20260906024742 | 70 | 210 | 5.2 | 7.8 | 0.00 | 0.00 | 0.00 | 4 | 1016.8 |
| 20260906023742 | 70 | 287 | 7.0 | 8.7 | 0.00 | 0.00 | 0.00 | 4 | 1016.8 |
| 20260906022742 | 69 | 215 | 8.7 | 13.9 | 0.00 | 0.00 | 0.00 | 4 | 1016.8 |
| 20260906021742 | 69 | 225 | 4.3 | 7.8 | 0.00 | 0.00 | 0.00 | 4 | 1016.8 |
| 20260906020742 | 69 | 153 | 7.8 | 7.8 | 0.00 | 0.00 | 0.00 | 4 | 1016.9 |
| 20260906015742 | 68 | 220 | 7.8 | 11.3 | 0.00 | 0.00 | 0.00 | 4 | 1016.8 |
| 20260906014742 | 68 | 212 | 8.7 | 14.8 | 0.00 | 0.00 | 0.00 | 4 | 1016.8 |
| 20260906013742 | 68 | 209 | 3.5 | 13.0 | 0.00 | 0.00 | 0.00 | 4 | 1016.9 |
| 20260906012741 | 69 | 193 | 3.5 | 9.6 | 0.00 | 0.00 | 0.00 | 4 | 1017.1 |
| 20260906011741 | 68 | 249 | 4.3 | 8.7 | 0.00 | 0.00 | 0.00 | 4 | 1017.0 |
| 20260906010741 | 67 | 190 | 4.3 | 13.0 | 0.00 | 0.00 | 0.00 | 4 | 1017.0 |
| 20260906005741 | 67 | 242 | 1.7 | 9.6 | 0.00 | 0.00 | 0.00 | 4 | 1017.0 |
| 20260906004741 | 67 | 199 | 2.6 | 13.0 | 0.00 | 0.00 | 0.00 | 4 | 1016.8 |
| 20260906003741 | 67 | 230 | 11.3 | 15.6 | 0.00 | 0.00 | 0.00 | 4 | 1016.7 |
| 20260906002741 | 66 | 233 | 3.5 | 4.3 | 0.00 | 0.00 | 0.00 | 4 | 1016.8 |
| 20260906001741 | 66 | 213 | 8.7 | 12.2 | 0.00 | 0.00 | 0.00 | 4 | 1016.7 |
| 20260906000741 | 65 | 224 | 2.6 | 10.4 | 0.00 | 0.00 | 0.00 | 4 | 1016.6 |
| 20260905235741 | 65 | 249 | 4.3 | 14.8 | 0.00 | 0.00 | 0.00 | 4 | 1016.3 |
| 20260905234740 | 64 | 214 | 4.3 | 9.6 | 0.00 | 0.00 | 0.00 | 5 | 1016.3 |
| 20260905233740 | 64 | 228 | 3.5 | 15.6 | 0.00 | 0.00 | 0.00 | 4 | 1016.3 |
| 20260905232740 | 64 | 214 | 7.0 | 13.0 | 0.00 | 0.00 | 0.00 | 5 | 1016.2 |
| 20260905231740 | 63 | 201 | 4.3 | 12.2 | 0.00 | 0.00 | 0.00 | 5 | 1016.2 |
| 20260905230740 | 63 | 266 | 7.0 | 14.8 | 0.00 | 0.00 | 0.00 | 5 | 1016.2 |
| 20260905225740 | 62 | 263 | 11.3 | 14.8 | 0.00 | 0.00 | 0.00 | 5 | 1016.1 |
| 20260905224740 | 62 | 210 | 8.7 | 18.2 | 0.00 | 0.00 | 0.00 | 5 | 1015.9 |
| 20260905223740 | 62 | 254 | 6.1 | 13.9 | 0.00 | 0.00 | 0.00 | 5 | 1016.0 |
| 20260905222740 | 61 | 244 | 7.8 | 20.0 | 0.00 | 0.00 | 0.00 | 5 | 1016.1 |
| 20260905221740 | 61 | 256 | 14.8 | 16.5 | 0.00 | 0.00 | 0.00 | 5 | 1016.0 |
| 20260905220740 | 61 | 203 | 7.0 | 9.6 | 0.00 | 0.00 | 0.00 | 5 | 1015.9 |
| 20260905215740 | 61 | 202 | 7.0 | 12.2 | 0.00 | 0.00 | 0.00 | 5 | 1015.6 |
| 20260905214740 | 60 | 254 | 8.7 | 13.9 | 0.00 | 0.00 | 0.00 | 5 | 1015.4 |
| 20260905213740 | 60 | 222 | 3.5 | 13.0 | 0.00 | 0.00 | 0.00 | 5 | 1015.2 |
| 20260905212740 | 59 | 285 | 2.6 | 7.8 | 0.00 | 0.00 | 0.00 | 5 | 1015.2 |
| 20260905211740 | 59 | 296 | 1.7 | 3.5 | 0.00 | 0.00 | 0.00 | 5 | 1015.1 |
| 20260905210740 | 59 | 0 | 0.0 | 2.6 | 0.00 | 0.00 | 0.00 | 5 | 1015.2 |
| 20260905205740 | 58 | 293 | 0.9 | 1.7 | 0.00 | 0.00 | 0.00 | 5 | 1014.7 |
| 20260905204739 | 57 | 0 | 0.0 | 0.0 | 0.00 | 0.00 | 0.00 | 5 | 1014.7 |
| 20260905203739 | 57 | 0 | 0.0 | 2.6 | 0.00 | 0.00 | 0.00 | 5 | 1014.3 |
| 20260905202739 | 56 | 0 | 0.0 | 0.0 | 0.00 | 0.00 | 0.00 | 5 | 1014.3 |
| 20260905201739 | 56 | 0 | 0.0 | 1.7 | 0.00 | 0.00 | 0.00 | 5 | 1013.9 |
| 20260905200739 | 56 | 324 | 0.9 | 5.2 | 0.00 | 0.00 | 0.00 | 5 | 1013.6 |
| 20260905195739 | 56 | 0 | 0.0 | 1.7 | 0.00 | 0.00 | 0.00 | 5 | 1013.6 |
| 20260905194739 | 57 | 289 | 1.7 | 2.6 | 0.00 | 0.00 | 0.00 | 5 | 1013.6 |
| 20260905193739 | 57 | 291 | 2.6 | 3.5 | 0.00 | 0.00 | 0.00 | 5 | 1013.6 |
| 20260905192739 | 57 | 290 | 2.6 | 6.1 | 0.00 | 0.00 | 0.00 | 5 | 1013.0 |
| 20260905191739 | 57 | 268 | 0.9 | 3.5 | 0.00 | 0.00 | 0.00 | 5 | 1013.3 |
| 20260905190739 | 58 | 279 | 2.6 | 5.2 | 0.00 | 0.00 | 0.00 | 5 | 1012.8 |
| 20260905185739 | 59 | 284 | 1.7 | 5.2 | 0.00 | 0.00 | 0.00 | 5 | 1012.7 |